Tracking 30994 objects as of 8-Jul-2025
HD Live streaming from Space Station
objects crossing your sky now

STARLINK-32859

Track STARLINK-32859 now!
10-day predictions
STARLINK-32859 is classified as:


NORAD ID: 62861
Int'l Code: 2025-022H
Perigee: 481.6 km
Apogee: 483.2 km
Inclination: 53.2 °
Period: 94.1 minutes
Semi major axis: 6853 km
RCS: Unknown
Launch date: February 1, 2025
Source: United States (US)
Launch site: AIR FORCE WESTERN TEST RANGE (AFWTR)
Your satellite tracking list
Your tracking list is empty




NASA's NSSDC Master Catalog

Two Line Element Set (TLE):
1 62861U 25022H   25188.91668981  .00044831  00000-0  15172-2 0  9994
2 62861  53.1586 186.8855 0001150  89.1250 129.7882 15.30188521 25138
Source of the keplerian elements: AFSPC